Location: Sabalos
(43.2860°N, 0.1414°E)
Time: 20:55:47
(UTC+00:00)

Cosmos 1452 Rocket - Pass Details

Date: 05 July 2020
Orbit: 768 x 774 km, 74.1° (Epoch: 14 August)

Event Time Altitude Azimuth Distance (km) Brightness Sun altitude
Rises 23:26:06 0° 344° (NNW) 3,254 8.2 -23.5°
Reaches altitude 10° 23:28:36 10° 351° (N) 2,322 7.1 -23.5°
Maximum altitude 23:33:39 46° 64° (ENE) 1,034 4.2 -23.7°
Enters shadow 23:35:07 36° 106° (ESE) 1,195 4.3 -23.7°
